Regional Weather Roundup
Issued by NWS

Home | Current Version | Previous Version | Text Only | Print | Product List | Glossary Off
Versions: 1 2 3 4 5 6 7 8 9 10 11 12 13 14 15 16 17 18 19 20 21 22 23 24 25 26 27 28 29 30 31 32 33 34 35 36 37 38 39 40 41 42 43 44 45 46 47 48 49 50

000
ASUS43 KMKX 041220
RWRWI

WISCONSIN REGIONAL WEATHER ROUNDUP
NATIONAL WEATHER SERVICE MILWAUKEE/SULLIVAN WI
600 AM CST WED MAR 04 2015

NOTE: "FAIR" INDICATES FEW OR NO CLOUDS BELOW 12,000 FEET WITH NO
SIGNIFICANT WEATHER AND/OR OBSTRUCTIONS TO VISIBILITY.

WIZ001-002-006>008-014>016-023>028-041300-
NORTHWEST WISCONSIN

CITY           SKY/WX    TMP DP  RH WIND       PRES   REMARKS
SUPERIOR ARPT  CLEAR     -8 -13  78 S8        30.07R WCI -24
6HR MIN TEMP: -10; 6HR MAX TEMP:   4;

ASHLAND        CLEAR     -4 -12  68 SW10      30.02R WCI -21
6HR MIN TEMP:  -4; 6HR MAX TEMP:   7;

HAYWARD        CLEAR     -4 -13  65 W5        30.01R WCI -15
6HR MIN TEMP:  -4; 6HR MAX TEMP:   7;

SIREN          CLEAR     -6 -11  77 W7        30.07R WCI -20
6HR MIN TEMP:  -6; 6HR MAX TEMP:   4;

CUMBERLAND     CLEAR     -6 -11  77 W6        30.03R WCI -18
RICE LAKE      CLEAR     -4 -10  77 W6        30.06R WCI -16
6HR MIN TEMP:  -4; 6HR MAX TEMP:   7;

CHETEK         CLEAR     -3  -8  76 W7        30.06R WCI -16
6HR MIN TEMP:  -3; 6HR MAX TEMP:   7;

LADYSMITH      CLEAR     -3  -9  73 W8        30.03R WCI -17
6HR MIN TEMP:  -4; 6HR MAX TEMP:  11;

EAU CLAIRE     CLEAR      0  -9  65 W10       30.08R WCI -16
6HR MIN TEMP:   0; 6HR MAX TEMP:   9;

MENOMONIE      CLEAR      1  -7  68 W8        30.09R WCI -13
6HR MIN TEMP:   1; 6HR MAX TEMP:   9;

NEW RICHMOND   CLEAR     -4 -10  74 W8        30.10R WCI -19
6HR MIN TEMP:  -4; 6HR MAX TEMP:   6;

OSCEOLA        CLEAR     -3  -9  75 W8        30.13R WCI -18
6HR MIN TEMP:  -3; 6HR MAX TEMP:   6;

$$

WIZ003>005-009-010-017-018-041300-
NORTH CENTRAL WISCONSIN

CITY           SKY/WX    TMP DP  RH WIND       PRES   REMARKS
MANITOWISH WTR CLEAR     -5 -11  75 W8        29.90R WCI -20
6HR MIN TEMP:  -5; 6HR MAX TEMP:   6;

ARBOR VITAE    CLEAR     -1  -8  71 W8        29.90R WCI -16
6HR MIN TEMP:  -1; 6HR MAX TEMP:  11;

WOODRUFF       CLEAR     -1  -8  71 W8        29.90R WCI -16
6HR MIN TEMP:  -1; 6HR MAX TEMP:  11;

RHINELANDER    FAIR      -3 -12  65 W7        29.90R WCI -16
6HR MIN TEMP:  -3; 6HR MAX TEMP:  11;

EAGLE RIVER    CLEAR     -2 -10  69 W12G18    29.88R WCI -20
6HR MIN TEMP:  -2; 6HR MAX TEMP:  10;

LAND O LAKES   CLEAR     -1  -8  74 W7        29.87R WCI -15
6HR MIN TEMP:  -1; 6HR MAX TEMP:  11;

PHILLIPS       CLEAR     -4 -12  71 W5        29.94R WCI -15
6HR MIN TEMP:  -4; 6HR MAX TEMP:   8;

TOMAHAWK       CLEAR     -3 -11  70 W6        29.94R WCI -16
6HR MIN TEMP:  -4; 6HR MAX TEMP:  10;

MEDFORD        CLEAR     -2  -9  71 W7        29.95R WCI -16
6HR MIN TEMP:  -2; 6HR MAX TEMP:  11;

MERRILL        CLEAR      0 -10  63 NW6       29.95R WCI -12
6HR MIN TEMP:   0; 6HR MAX TEMP:  14;

$$

WIZ029-030-035-036-043>047-041300-
CENTRAL WISCONSIN

CITY           SKY/WX    TMP DP  RH WIND       PRES   REMARKS
WAUSAU         CLEAR      1  -7  68 NW9       29.95R WCI -14
6HR MIN TEMP:   1; 6HR MAX TEMP:  14;

MOSINEE        CLEAR      1  -6  71 W12       29.97R WCI -15
MARSHFIELD     CLEAR      2  -7  66 NW14      29.99R WCI -16
6HR MIN TEMP:   2; 6HR MAX TEMP:  13;

STEVENS POINT  CLEAR      2  -8  64 W9        30.00R WCI -13
6HR MIN TEMP:   2; 6HR MAX TEMP:  15;

WAUPACA        FAIR       9  -3  58 W13G18    30.00R WCI  -7
6HR MIN TEMP:   9; 6HR MAX TEMP:  22;

WAUTOMA        PTCLDY     7  -4  60 NW13      30.03R WCI  -9
6HR MIN TEMP:   7; 6HR MAX TEMP:  20;

WISC RAPIDS    CLEAR      4  -6  63 NW10G20   30.03R WCI -11
6HR MIN TEMP:   4; 6HR MAX TEMP:  17;

CAMP DOUGLAS   PTCLDY     5  -3  68 W12       30.06R WCI -11
6HR MIN TEMP:   5; 6HR MAX TEMP:  16; 6HR PCP: TRACE;

$$

WIZ011>013-019>022-031-037>040-048>050-041300-
NORTHEAST WISCONSIN

CITY           SKY/WX    TMP DP  RH WIND       PRES   REMARKS
ANTIGO         CLEAR      0  -7  74 W14G21    29.90R WCI -19
6HR MIN TEMP:   0; 6HR MAX TEMP:  13;

SHAWANO        CLEAR     10   0  62 W5        29.96R WCI   2
6HR MIN TEMP:  10; 6HR MAX TEMP:  23;

OCONTO         CLEAR      9  -2  60 NW7       29.95R WCI  -2
6HR MIN TEMP:   9; 6HR MAX TEMP:  23;

STURGEON BAY   PTCLDY     9  -2  61 W9        29.95R WCI  -5
6HR MIN TEMP:   9; 6HR MAX TEMP:  21;

GREEN BAY      PTCLDY    11   1  64 W13       29.96R WCI  -4
6HR MIN TEMP:  11; 6HR MAX TEMP:  23;

MANITOWOC      CLEAR     12   5  73 W10       29.97R WCI  -1
6HR MIN TEMP:  12; 6HR MAX TEMP:  25;

APPLETON       MOCLDY     9   0  66 W13G26    29.97R WCI  -7
CLINTONVILLE   CLEAR      9   0  66 W10       29.96R WCI  -6
OSHKOSH        PTCLDY     9  -1  64 W14       29.99R WCI  -7
6HR MIN TEMP:   9; 6HR MAX TEMP:  23;

$$

WIZ032>034-041-042-053>061-041300-
SOUTHWEST WISCONSIN

CITY           SKY/WX    TMP DP  RH WIND       PRES   REMARKS
LA CROSSE      CLEAR      6  -3  66 W8        30.12R WCI  -7
6HR MIN TEMP:   6; 6HR MAX TEMP:  14;

SPARTA         CLEAR      6  -3  66 NW7       30.09R WCI  -6
6HR MIN TEMP:   6; 6HR MAX TEMP:  15;

VIROQUA        CLEAR      5  -2  73 NW10      30.04R WCI -10
6HR MIN TEMP:   5; 6HR MAX TEMP:  11;

BOSCOBEL       CLEAR      9  -2  61 W8        30.12R WCI  -3
6HR MIN TEMP:   9; 6HR MAX TEMP:  17;

PRAIRIE DU CHI MOCLDY     8  -3  59 W9        30.14R WCI  -5
6HR MIN TEMP:   8; 6HR MAX TEMP:  13;

PLATTEVILLE    PTCLDY     8   1  75 W8        30.07R WCI  -5
6HR MIN TEMP:   8; 6HR MAX TEMP:  15;

$$

WIZ056-057-062-063-064-067-068-041300-
SOUTH CENTRAL WISCONSIN

CITY           SKY/WX    TMP DP  RH WIND       PRES   REMARKS
REEDSBURG      PTCLDY     8  -1  66 NW8       30.05R WCI  -4
6HR MIN TEMP:   8; 6HR MAX TEMP:  19;

BARABOO/DELLS  PTCLDY     8  -3  61 NW6       30.04R WCI  -2
6HR MIN TEMP:   8; 6HR MAX TEMP:  19;

LONE ROCK      PTCLDY    10  -1  61 W12       30.09R WCI  -5
6HR MIN TEMP:   9; 6HR MAX TEMP:  19;

MINERAL POINT  PTCLDY    10   1  67 W6        30.05R WCI   1
MADISON        MOCLDY    11   3  70 W6        30.04R WCI   1
6HR MIN TEMP:  11; 6HR MAX TEMP:  25;

MIDDLETON      MOCLDY    12   3  65 W12       30.05R WCI  -2
6HR MIN TEMP:  12; 6HR MAX TEMP:  24;

WATERTOWN      PTCLDY    12   3  67 NW10      30.03R WCI  -1
6HR MIN TEMP:  12; 6HR MAX TEMP:  28;

MONROE         MOCLDY    12   5  73 NW12      30.03R WCI  -2
JANESVILLE     CLOUDY    16   9  73 NW13      30.03R WCI   2
$$

WIZ051-052-058>065-066-070>072-041300-
SOUTHEAST WISCONSIN

CITY           SKY/WX    TMP DP  RH WIND       PRES   REMARKS
MILWAUKEE      MOCLDY    16   3  56 NW16      30.01R WCI   1
6HR MIN TEMP:  16; 6HR MAX TEMP:  31;

WAUKESHA       PTCLDY    12   3  67 NW12G23   30.00R WCI  -2
MILWAUKEE/TIMM PTCLDY    14   3  62 NW16G22   30.00R WCI  -2
RACINE         PTCLDY    17   6  62 NW9       30.02R WCI   6
6HR MIN TEMP:  17; 6HR MAX TEMP:  30;

BURLINGTON     PTCLDY    14   8  78 NW12      30.02R WCI   0
6HR MIN TEMP:  12; 6HR MAX TEMP:  28;

KENOSHA        CLEAR     15   9  76 W9        30.01R WCI   3
6HR MIN TEMP:  15; 6HR MAX TEMP:  30;

FOND DU LAC    PTCLDY    11   1  64 W13       29.99R WCI  -4
6HR MIN TEMP:  11; 6HR MAX TEMP:  25;

SHEBOYGAN      CLEAR     12   2  64 NW14      29.97R WCI  -3
6HR MIN TEMP:  12; 6HR MAX TEMP:  28;

WEST BEND      PTCLDY    12   1  62 W10G17    29.99R WCI  -1
JUNEAU         PTCLDY    10   1  66 W6        30.02R WCI   0
6HR MIN TEMP:  10; 6HR MAX TEMP:  25;

$$

LSZ147-162-041300-
LAKE SUPERIOR

STATION/POSITION TIME  TEMP    WIND        PRES    WAVE
                       AIR SEA DIR/SP/G            HT/PER
                 (UTC) (F)     (DEG/KT/KT) (MB)    (FT/S)
DEVILS ISLAND    1200    2     290/ 22/ 26 1017.6R
PORT WING        1140    2     300/ 18/ 24 1017.3R
SAXON HARBOR     1040    1     230/  5/ 10 1015.6R
$$

LMZ867-665-643>646-041300-
LAKE MICHIGAN

STATION/POSITION TIME  TEMP    WIND        PRES    WAVE


USA.gov is the U.S. government's official web portal to all federal, state and local government web resources and services.